| time (UTC) | temp F | wind direction | speed MPH | gust MPH | rain 1hr in | rain 24hr in | rain mn in | humidity % | barometer mb |
| 20260507230511 | 53 | 347 | 1.0 | 4.0 | 0.00 | 0.00 | 0.00 | 58 | 1008.7 |
| 20260507230035 | 53 | 21 | 2.0 | 5.0 | 0.00 | 0.00 | 0.00 | 56 | 1008.8 |
| 20260507225509 | 53 | 9 | 2.0 | 5.0 | 0.00 | 0.00 | 0.00 | 57 | 1008.7 |
| 20260507225012 | 53 | 9 | 2.0 | 8.0 | 0.00 | 0.00 | 0.00 | 56 | 1008.6 |
| 20260507224533 | 53 | 330 | 2.0 | 8.0 | 0.00 | 0.00 | 0.00 | 54 | 1008.6 |
| 20260507224011 | 53 | 310 | 2.0 | 8.0 | 0.00 | 0.00 | 0.00 | 57 | 1008.5 |
| 20260507223511 | 53 | 5 | 2.0 | 8.0 | 0.00 | 0.00 | 0.00 | 55 | 1008.5 |
| 20260507223027 | 53 | 278 | 3.0 | 7.0 | 0.00 | 0.00 | 0.00 | 52 | 1008.6 |
| 20260507222512 | 54 | 288 | 3.0 | 8.0 | 0.00 | 0.00 | 0.00 | 54 | 1008.5 |
| 20260507222008 | 54 | 40 | 2.0 | 8.0 | 0.00 | 0.00 | 0.00 | 53 | 1008.4 |
| 20260507221528 | 54 | 37 | 3.0 | 8.0 | 0.00 | 0.00 | 0.00 | 52 | 1008.5 |
| 20260507221013 | 54 | 30 | 2.0 | 7.0 | 0.00 | 0.00 | 0.00 | 54 | 1008.5 |
| 20260507220513 | 54 | 331 | 1.0 | 5.0 | 0.00 | 0.00 | 0.00 | 59 | 1008.5 |
| 20260507220031 | 54 | 336 | 2.0 | 5.0 | 0.00 | 0.00 | 0.00 | 57 | 1008.5 |
| 20260507215515 | 53 | 317 | 2.0 | 5.0 | 0.00 | 0.02 | 0.00 | 55 | 1008.6 |
| 20260507215017 | 53 | 289 | 2.0 | 5.0 | 0.00 | 0.02 | 0.00 | 54 | 1008.6 |
| 20260507214530 | 53 | 15 | 2.0 | 6.0 | 0.00 | 0.02 | 0.00 | 56 | 1008.6 |
| 20260507214013 | 53 | 20 | 3.0 | 6.0 | 0.00 | 0.02 | 0.00 | 53 | 1008.7 |
| 20260507213513 | 54 | 355 | 3.0 | 9.0 | 0.00 | 0.02 | 0.00 | 53 | 1008.7 |
| 20260507213036 | 54 | 360 | 4.0 | 9.0 | 0.00 | 0.02 | 0.00 | 52 | 1008.6 |
| 20260507212513 | 54 | 322 | 3.0 | 7.0 | 0.00 | 0.02 | 0.00 | 53 | 1008.7 |
| 20260507212011 | 54 | 325 | 4.0 | 13.0 | 0.00 | 0.02 | 0.00 | 49 | 1008.7 |
| 20260507211543 | 55 | 300 | 4.0 | 13.0 | 0.00 | 0.02 | 0.00 | 48 | 1008.7 |
| 20260507211015 | 56 | 290 | 7.0 | 14.0 | 0.00 | 0.02 | 0.00 | 46 | 1008.8 |
| 20260507210513 | 56 | 60 | 5.0 | 14.0 | 0.00 | 0.02 | 0.00 | 52 | 1008.5 |
| 20260507210028 | 55 | 345 | 5.0 | 10.0 | 0.00 | 0.02 | 0.00 | 52 | 1008.5 |
| 20260507205516 | 54 | 38 | 3.0 | 9.0 | 0.00 | 0.03 | 0.00 | 53 | 1008.6 |
| 20260507205011 | 54 | 347 | 3.0 | 7.0 | 0.00 | 0.03 | 0.00 | 52 | 1008.7 |
| 20260507204528 | 54 | 352 | 3.0 | 14.0 | 0.00 | 0.03 | 0.00 | 52 | 1008.7 |
| 20260507204013 | 55 | 355 | 3.0 | 14.0 | 0.00 | 0.03 | 0.00 | 54 | 1008.7 |
| 20260507203515 | 55 | 19 | 3.0 | 9.0 | 0.00 | 0.03 | 0.00 | 52 | 1008.7 |
| 20260507203028 | 55 | 321 | 3.0 | 9.0 | 0.00 | 0.03 | 0.00 | 55 | 1008.8 |
| 20260507202514 | 55 | 253 | 4.0 | 8.0 | 0.00 | 0.03 | 0.00 | 49 | 1008.7 |
| 20260507202014 | 55 | 300 | 3.0 | 8.0 | 0.00 | 0.03 | 0.00 | 49 | 1008.8 |
| 20260507201536 | 54 | 340 | 4.0 | 8.0 | 0.00 | 0.03 | 0.00 | 50 | 1008.8 |
| 20260507201012 | 54 | 5 | 3.0 | 12.0 | 0.00 | 0.03 | 0.00 | 55 | 1008.9 |
| 20260507200513 | 54 | 341 | 4.0 | 17.0 | 0.00 | 0.03 | 0.00 | 53 | 1008.9 |
| 20260507200034 | 55 | 348 | 5.0 | 17.0 | 0.00 | 0.03 | 0.00 | 52 | 1009.0 |
| 20260507195516 | 56 | 60 | 7.0 | 12.0 | 0.00 | 0.03 | 0.00 | 52 | 1009.0 |
| 20260507195013 | 56 | 23 | 6.0 | 12.0 | 0.00 | 0.03 | 0.00 | 51 | 1008.9 |
| 20260507194530 | 56 | 57 | 2.0 | 12.0 | 0.00 | 0.03 | 0.00 | 52 | 1008.9 |
| 20260507194014 | 57 | 26 | 5.0 | 12.0 | 0.00 | 0.03 | 0.00 | 53 | 1008.9 |
| 20260507193512 | 57 | 34 | 5.0 | 12.0 | 0.00 | 0.03 | 0.00 | 52 | 1008.9 |
| 20260507193028 | 57 | 360 | 3.0 | 12.0 | 0.00 | 0.03 | 0.00 | 51 | 1009.0 |
| 20260507192511 | 55 | 275 | 4.0 | 10.0 | 0.00 | 0.03 | 0.00 | 52 | 1009.0 |
| 20260507192012 | 56 | 351 | 4.0 | 13.0 | 0.00 | 0.03 | 0.00 | 50 | 1009.1 |
| 20260507191530 | 55 | 273 | 3.0 | 13.0 | 0.00 | 0.03 | 0.00 | 49 | 1009.1 |
| 20260507191010 | 55 | 44 | 5.0 | 11.0 | 0.00 | 0.03 | 0.00 | 51 | 1009.3 |
| 20260507190511 | 54 | 90 | 5.0 | 10.0 | 0.00 | 0.03 | 0.00 | 56 | 1009.3 |
| 20260507190028 | 54 | 360 | 4.0 | 16.0 | 0.00 | 0.03 | 0.00 | 56 | 1009.5 |
| 20260507185512 | 54 | 350 | 7.0 | 16.0 | 0.00 | 0.03 | 0.00 | 54 | 1009.4 |
| 20260507185013 | 55 | 306 | 6.0 | 13.0 | 0.00 | 0.03 | 0.00 | 52 | 1009.4 |
| 20260507184527 | 54 | 275 | 6.0 | 12.0 | 0.00 | 0.03 | 0.00 | 50 | 1009.4 |
| 20260507184011 | 54 | 277 | 4.0 | 9.0 | 0.00 | 0.03 | 0.00 | 52 | 1009.5 |
| 20260507183512 | 54 | 0 | 2.0 | 9.0 | 0.00 | 0.03 | 0.00 | 54 | 1009.5 |
| 20260507183032 | 54 | 40 | 3.0 | 11.0 | 0.00 | 0.03 | 0.00 | 58 | 1009.7 |
| 20260507182511 | 53 | 37 | 2.0 | 11.0 | 0.00 | 0.03 | 0.00 | 53 | 1009.7 |
| 20260507182010 | 53 | 14 | 5.0 | 11.0 | 0.00 | 0.03 | 0.00 | 55 | 1009.7 |
| 20260507181528 | 53 | 316 | 5.0 | 11.0 | 0.00 | 0.03 | 0.00 | 54 | 1009.8 |
| 20260507181010 | 53 | 24 | 3.0 | 11.0 | 0.00 | 0.03 | 0.00 | 53 | 1009.7 |
| 20260507180512 | 54 | 298 | 6.0 | 12.0 | 0.00 | 0.03 | 0.00 | 53 | 1009.8 |
| 20260507180043 | 54 | 317 | 6.0 | 12.0 | 0.00 | 0.03 | 0.00 | 52 | 1009.8 |
| 20260507175510 | 54 | 268 | 4.0 | 10.0 | 0.00 | 0.03 | 0.00 | 57 | 1009.9 |
| 20260507175011 | 53 | 340 | 5.0 | 13.0 | 0.00 | 0.03 | 0.00 | 52 | 1009.9 |
| 20260507174532 | 54 | 307 | 6.0 | 14.0 | 0.00 | 0.03 | 0.00 | 51 | 1010.0 |
| 20260507174008 | 54 | 296 | 8.0 | 14.0 | 0.00 | 0.03 | 0.00 | 53 | 1010.1 |
| 20260507173514 | 52 | 279 | 5.0 | 12.0 | 0.00 | 0.03 | 0.00 | 51 | 1010.0 |
| 20260507173030 | 52 | 282 | 7.0 | 12.0 | 0.00 | 0.03 | 0.00 | 52 | 1010.1 |
| 20260507172510 | 53 | 312 | 5.0 | 11.0 | 0.00 | 0.03 | 0.00 | 51 | 1010.1 |
| 20260507172012 | 53 | 313 | 5.0 | 11.0 | 0.00 | 0.03 | 0.00 | 53 | 1010.1 |
| 20260507171526 | 52 | 335 | 5.0 | 12.0 | 0.00 | 0.03 | 0.00 | 56 | 1010.2 |
| 20260507171014 | 52 | 5 | 5.0 | 12.0 | 0.00 | 0.03 | 0.00 | 56 | 1010.3 |
| 20260507170042 | 52 | 27 | 3.0 | 10.0 | 0.00 | 0.03 | 0.00 | 52 | 1010.3 |
| 20260507165511 | 53 | 331 | 4.0 | 12.0 | 0.00 | 0.05 | 0.00 | 58 | 1010.4 |
| 20260507165011 | 52 | 300 | 4.0 | 12.0 | 0.00 | 0.05 | 0.00 | 54 | 1010.5 |
| 20260507164530 | 52 | 360 | 4.0 | 12.0 | 0.00 | 0.05 | 0.00 | 52 | 1010.4 |
| 20260507164013 | 53 | 313 | 5.0 | 12.0 | 0.00 | 0.05 | 0.00 | 56 | 1010.5 |
| 20260507163512 | 52 | 286 | 4.0 | 11.0 | 0.00 | 0.05 | 0.00 | 55 | 1010.6 |
| 20260507163027 | 52 | 221 | 4.0 | 11.0 | 0.00 | 0.05 | 0.00 | 53 | 1010.6 |
| 20260507162511 | 52 | 221 | 5.0 | 15.0 | 0.00 | 0.05 | 0.00 | 52 | 1010.7 |
| 20260507162012 | 52 | 298 | 5.0 | 15.0 | 0.00 | 0.05 | 0.00 | 59 | 1010.8 |
| 20260507161530 | 52 | 326 | 9.0 | 15.0 | 0.00 | 0.05 | 0.00 | 53 | 1010.9 |
| 20260507161017 | 52 | 297 | 5.0 | 11.0 | 0.00 | 0.05 | 0.00 | 51 | 1011.0 |
| 20260507160513 | 52 | 0 | 2.0 | 16.0 | 0.00 | 0.05 | 0.00 | 57 | 1011.0 |
| 20260507160029 | 52 | 244 | 6.0 | 16.0 | 0.00 | 0.05 | 0.00 | 56 | 1011.0 |
| 20260507155511 | 51 | 334 | 4.0 | 14.0 | 0.00 | 0.14 | 0.00 | 57 | 1011.2 |
| 20260507155010 | 50 | 280 | 6.0 | 14.0 | 0.00 | 0.14 | 0.00 | 54 | 1011.1 |
| 20260507154528 | 51 | 318 | 3.0 | 11.0 | 0.00 | 0.14 | 0.00 | 59 | 1011.1 |
| 20260507154014 | 52 | 249 | 3.0 | 11.0 | 0.00 | 0.14 | 0.00 | 55 | 1011.1 |
| 20260507153513 | 51 | 319 | 6.0 | 11.0 | 0.00 | 0.14 | 0.00 | 59 | 1011.4 |
| 20260507153027 | 51 | 300 | 5.0 | 14.0 | 0.00 | 0.14 | 0.00 | 57 | 1011.4 |
| 20260507152512 | 51 | 321 | 7.0 | 13.0 | 0.00 | 0.14 | 0.00 | 55 | 1011.3 |
| 20260507152012 | 51 | 309 | 6.0 | 12.0 | 0.00 | 0.14 | 0.00 | 58 | 1011.4 |
| 20260507151528 | 51 | 24 | 3.0 | 16.0 | 0.00 | 0.14 | 0.00 | 57 | 1011.5 |
| 20260507151015 | 51 | 273 | 8.0 | 16.0 | 0.00 | 0.14 | 0.00 | 60 | 1011.7 |
| 20260507150516 | 51 | 285 | 6.0 | 11.0 | 0.00 | 0.14 | 0.00 | 54 | 1011.7 |
| 20260507150028 | 51 | 293 | 5.0 | 14.0 | 0.00 | 0.14 | 0.00 | 62 | 1011.8 |
| 20260507145512 | 50 | 252 | 8.0 | 14.0 | 0.00 | 0.18 | 0.00 | 56 | 1011.8 |
| 20260507145016 | 49 | 17 | 2.0 | 12.0 | 0.00 | 0.18 | 0.00 | 61 | 1011.8 |
| 20260507144528 | 50 | 309 | 4.0 | 9.0 | 0.00 | 0.18 | 0.00 | 63 | 1011.8 |
| 20260507144013 | 50 | 292 | 3.0 | 8.0 | 0.00 | 0.18 | 0.00 | 65 | 1011.8 |
| 20260507143510 | 49 | 289 | 3.0 | 9.0 | 0.00 | 0.18 | 0.00 | 61 | 1011.8 |
| 20260507143030 | 50 | 332 | 4.0 | 11.0 | 0.00 | 0.18 | 0.00 | 66 | 1011.8 |
| 20260507142516 | 49 | 12 | 4.0 | 11.0 | 0.00 | 0.18 | 0.00 | 65 | 1011.9 |
| 20260507142014 | 48 | 338 | 2.0 | 11.0 | 0.00 | 0.18 | 0.00 | 60 | 1011.8 |
| 20260507141528 | 48 | 257 | 3.0 | 10.0 | 0.00 | 0.18 | 0.00 | 61 | 1011.8 |
| 20260507141014 | 48 | 263 | 5.0 | 10.0 | 0.00 | 0.18 | 0.00 | 62 | 1011.9 |
| 20260507140512 | 48 | 279 | 5.0 | 11.0 | 0.00 | 0.18 | 0.00 | 64 | 1011.9 |
| 20260507140035 | 48 | 338 | 6.0 | 14.0 | 0.00 | 0.18 | 0.00 | 61 | 1012.0 |
| 20260507135514 | 48 | 287 | 5.0 | 14.0 | 0.00 | 0.31 | 0.00 | 60 | 1012.1 |
| 20260507135013 | 48 | 267 | 5.0 | 11.0 | 0.00 | 0.31 | 0.00 | 69 | 1012.0 |
| 20260507134530 | 47 | 314 | 2.0 | 5.0 | 0.00 | 0.31 | 0.00 | 67 | 1011.9 |
| 20260507134014 | 47 | 304 | 1.0 | 8.0 | 0.00 | 0.31 | 0.00 | 67 | 1012.0 |
| 20260507133513 | 47 | 333 | 3.0 | 9.0 | 0.00 | 0.31 | 0.00 | 66 | 1012.0 |
| 20260507133028 | 47 | 24 | 3.0 | 11.0 | 0.00 | 0.31 | 0.00 | 67 | 1012.1 |
| 20260507132510 | 46 | 355 | 4.0 | 11.0 | 0.00 | 0.31 | 0.00 | 68 | 1012.1 |
| 20260507132011 | 46 | 336 | 2.0 | 9.0 | 0.00 | 0.31 | 0.00 | 67 | 1012.2 |
| 20260507131535 | 47 | 9 | 4.0 | 9.0 | 0.00 | 0.31 | 0.00 | 72 | 1012.2 |
| 20260507131011 | 47 | 340 | 4.0 | 8.0 | 0.00 | 0.31 | 0.00 | 70 | 1012.0 |
| 20260507130512 | 46 | 360 | 3.0 | 9.0 | 0.00 | 0.31 | 0.00 | 71 | 1012.2 |
| 20260507130031 | 46 | 325 | 4.0 | 10.0 | 0.00 | 0.31 | 0.00 | 73 | 1012.1 |
| 20260507125513 | 45 | 20 | 3.0 | 10.0 | 0.00 | 0.37 | 0.00 | 73 | 1012.1 |
| 20260507125014 | 45 | 330 | 3.0 | 10.0 | 0.00 | 0.37 | 0.00 | 72 | 1012.1 |
| 20260507124529 | 44 | 30 | 3.0 | 10.0 | 0.00 | 0.37 | 0.00 | 73 | 1012.2 |
| 20260507124011 | 44 | 318 | 5.0 | 10.0 | 0.00 | 0.37 | 0.00 | 73 | 1012.0 |
| 20260507123511 | 44 | 336 | 3.0 | 12.0 | 0.00 | 0.37 | 0.00 | 75 | 1012.0 |
| 20260507123028 | 44 | 311 | 4.0 | 9.0 | 0.00 | 0.37 | 0.00 | 74 | 1011.9 |
| 20260507122516 | 44 | 329 | 4.0 | 8.0 | 0.00 | 0.37 | 0.00 | 74 | 1011.8 |
| 20260507122018 | 44 | 34 | 2.0 | 8.0 | 0.00 | 0.37 | 0.00 | 78 | 1011.8 |
| 20260507121530 | 44 | 346 | 2.0 | 8.0 | 0.00 | 0.37 | 0.00 | 78 | 1011.8 |
| 20260507121011 | 43 | 5 | 3.0 | 6.0 | 0.00 | 0.37 | 0.00 | 78 | 1011.9 |
| 20260507120510 | 43 | 12 | 3.0 | 6.0 | 0.00 | 0.37 | 0.00 | 79 | 1011.9 |
| 20260507120028 | 43 | 323 | 2.0 | 6.0 | 0.00 | 0.37 | 0.00 | 81 | 1012.0 |
| 20260507115512 | 43 | 0 | 2.0 | 4.0 | 0.00 | 0.41 | 0.00 | 82 | 1012.0 |
| 20260507115012 | 42 | 0 | 1.0 | 4.0 | 0.00 | 0.41 | 0.00 | 83 | 1012.0 |
| 20260507114529 | 42 | 22 | 0.0 | 6.0 | 0.00 | 0.41 | 0.00 | 84 | 1012.0 |
| 20260507114011 | 42 | 0 | 1.0 | 7.0 | 0.00 | 0.41 | 0.00 | 84 | 1012.0 |
| 20260507113509 | 41 | 5 | 1.0 | 7.0 | 0.00 | 0.41 | 0.00 | 86 | 1011.9 |
| 20260507113028 | 40 | 0 | 0.0 | 5.0 | 0.00 | 0.41 | 0.00 | 88 | 1011.9 |
| 20260507112510 | 40 | 32 | 1.0 | 5.0 | 0.00 | 0.41 | 0.00 | 89 | 1011.8 |
| 20260507112013 | 39 | 12 | 1.0 | 4.0 | 0.00 | 0.41 | 0.00 | 89 | 1011.6 |
| 20260507111528 | 39 | 9 | 0.0 | 4.0 | 0.00 | 0.41 | 0.00 | 90 | 1011.6 |
| 20260507111012 | 38 | 0 | 0.0 | 0.0 | 0.00 | 0.41 | 0.00 | 90 | 1011.6 |
| 20260507110510 | 38 | 0 | 0.0 | 2.0 | 0.00 | 0.41 | 0.00 | 91 | 1011.6 |
| 20260507110031 | 38 | 0 | 0.0 | 3.0 | 0.00 | 0.41 | 0.00 | 91 | 1011.6 |
| 20260507105512 | 37 | 89 | 0.0 | 3.0 | 0.00 | 0.41 | 0.00 | 92 | 1011.6 |
| 20260507105012 | 37 | 89 | 0.0 | 2.0 | 0.00 | 0.41 | 0.00 | 92 | 1011.6 |
| 20260507104531 | 36 | 0 | 0.0 | 2.0 | 0.00 | 0.41 | 0.00 | 92 | 1011.5 |
| 20260507104014 | 36 | 0 | 0.0 | 2.0 | 0.00 | 0.41 | 0.00 | 92 | 1011.5 |
| 20260507103511 | 36 | 0 | 0.0 | 1.0 | 0.00 | 0.41 | 0.00 | 91 | 1011.3 |
| 20260507102510 | 36 | 0 | 0.0 | 0.0 | 0.00 | 0.41 | 0.00 | 91 | 1011.3 |
| 20260507102013 | 36 | 0 | 0.0 | 0.0 | 0.00 | 0.41 | 0.00 | 91 | 1011.3 |
| 20260507101013 | 36 | 0 | 0.0 | 0.0 | 0.00 | 0.41 | 0.00 | 91 | 1011.2 |
| 20260507100512 | 36 | 0 | 0.0 | 1.0 | 0.00 | 0.41 | 0.00 | 91 | 1011.2 |
| 20260507100031 | 36 | 0 | 0.0 | 1.0 | 0.00 | 0.41 | 0.00 | 91 | 1011.1 |
| 20260507095513 | 37 | 360 | 0.0 | 1.0 | 0.00 | 0.41 | 0.00 | 90 | 1011.1 |
| 20260507095014 | 37 | 0 | 0.0 | 1.0 | 0.00 | 0.41 | 0.00 | 90 | 1011.1 |
| 20260507094533 | 37 | 0 | 0.0 | 1.0 | 0.00 | 0.41 | 0.00 | 90 | 1011.1 |
| 20260507094011 | 37 | 0 | 0.0 | 2.0 | 0.00 | 0.41 | 0.00 | 90 | 1011.1 |
| 20260507093513 | 38 | 0 | 0.0 | 3.0 | 0.00 | 0.41 | 0.00 | 90 | 1011.0 |
| 20260507093031 | 38 | 0 | 0.0 | 3.0 | 0.00 | 0.41 | 0.00 | 90 | 1011.0 |
| 20260507092511 | 38 | 343 | 0.0 | 4.0 | 0.00 | 0.41 | 0.00 | 90 | 1010.9 |
| 20260507092015 | 39 | 0 | 0.0 | 4.0 | 0.00 | 0.41 | 0.00 | 90 | 1010.9 |
| 20260507091011 | 40 | 346 | 2.0 | 6.0 | 0.00 | 0.41 | 0.00 | 90 | 1011.1 |
| 20260507090513 | 40 | 332 | 2.0 | 6.0 | 0.00 | 0.41 | 0.00 | 91 | 1011.1 |
| 20260507090035 | 40 | 315 | 2.0 | 9.0 | 0.00 | 0.41 | 0.00 | 91 | 1011.1 |
| 20260507085513 | 40 | 360 | 2.0 | 9.0 | 0.00 | 0.41 | 0.00 | 91 | 1011.0 |
| 20260507085017 | 40 | 323 | 4.0 | 9.0 | 0.00 | 0.41 | 0.00 | 91 | 1011.0 |
| 20260507084541 | 40 | 329 | 2.0 | 5.0 | 0.00 | 0.41 | 0.00 | 91 | 1011.0 |
| 20260507084010 | 41 | 0 | 0.0 | 6.0 | 0.00 | 0.41 | 0.00 | 91 | 1011.0 |
| 20260507083514 | 41 | 312 | 1.0 | 6.0 | 0.00 | 0.41 | 0.00 | 92 | 1010.9 |
| 20260507083030 | 41 | 0 | 0.0 | 3.0 | 0.00 | 0.41 | 0.00 | 92 | 1011.1 |
| 20260507082513 | 42 | 0 | 1.0 | 6.0 | 0.00 | 0.41 | 0.00 | 92 | 1011.0 |
| 20260507082009 | 42 | 323 | 2.0 | 6.0 | 0.00 | 0.41 | 0.00 | 93 | 1011.1 |
| 20260507081529 | 42 | 317 | 1.0 | 5.0 | 0.00 | 0.41 | 0.00 | 94 | 1011.1 |
| 20260507081015 | 42 | 341 | 2.0 | 7.0 | 0.00 | 0.41 | 0.00 | 94 | 1011.1 |
| 20260507080512 | 42 | 339 | 3.0 | 7.0 | 0.00 | 0.41 | 0.00 | 94 | 1011.2 |
| 20260507080027 | 42 | 0 | 3.0 | 8.0 | 0.00 | 0.41 | 0.00 | 94 | 1011.2 |
| 20260507075511 | 42 | 317 | 3.0 | 9.0 | 0.00 | 0.41 | 0.00 | 95 | 1011.1 |
| 20260507075012 | 42 | 317 | 4.0 | 9.0 | 0.00 | 0.41 | 0.00 | 95 | 1011.1 |
| 20260507074529 | 42 | 331 | 4.0 | 8.0 | 0.00 | 0.41 | 0.00 | 95 | 1011.1 |
| 20260507074010 | 42 | 329 | 4.0 | 9.0 | 0.00 | 0.41 | 0.00 | 95 | 1011.1 |
| 20260507073513 | 42 | 330 | 4.0 | 9.0 | 0.00 | 0.41 | 0.00 | 95 | 1011.3 |
| 20260507073031 | 43 | 325 | 3.0 | 8.0 | 0.00 | 0.41 | 0.00 | 95 | 1011.3 |
| 20260507072511 | 43 | 355 | 2.0 | 5.0 | 0.00 | 0.41 | 0.00 | 96 | 1011.3 |
| 20260507072012 | 43 | 323 | 2.0 | 5.0 | 0.00 | 0.41 | 0.00 | 96 | 1011.4 |
| 20260507071529 | 43 | 337 | 1.0 | 8.0 | 0.00 | 0.41 | 0.00 | 96 | 1011.2 |
| 20260507071012 | 43 | 341 | 2.0 | 8.0 | 0.00 | 0.41 | 0.00 | 96 | 1011.3 |
| 20260507070512 | 43 | 291 | 3.0 | 8.0 | 0.00 | 0.41 | 0.00 | 96 | 1011.3 |
| 20260507070029 | 43 | 285 | 2.0 | 5.0 | 0.00 | 0.41 | 0.00 | 96 | 1011.3 |
| 20260507065511 | 43 | 0 | 1.0 | 4.0 | 0.00 | 0.41 | 0.00 | 96 | 1011.3 |
| 20260507065011 | 43 | 267 | 1.0 | 5.0 | 0.00 | 0.41 | 0.00 | 96 | 1011.3 |
| 20260507064529 | 43 | 286 | 0.0 | 4.0 | 0.00 | 0.41 | 0.00 | 96 | 1011.3 |
| 20260507064011 | 42 | 0 | 0.0 | 4.0 | 0.00 | 0.41 | 0.00 | 96 | 1011.1 |
| 20260507063512 | 43 | 281 | 0.0 | 8.0 | 0.00 | 0.41 | 0.00 | 96 | 1011.0 |
| 20260507063033 | 42 | 321 | 1.0 | 8.0 | 0.00 | 0.41 | 0.00 | 96 | 1010.9 |
| 20260507062512 | 42 | 291 | 1.0 | 8.0 | 0.00 | 0.41 | 0.00 | 96 | 1011.0 |
| 20260507062013 | 42 | 0 | 0.0 | 0.0 | 0.00 | 0.41 | 0.00 | 96 | 1010.9 |
| 20260507061529 | 42 | 0 | 0.0 | 0.0 | 0.00 | 0.41 | 0.00 | 96 | 1011.0 |
| 20260507061013 | 42 | 0 | 0.0 | 2.0 | 0.00 | 0.41 | 0.00 | 96 | 1010.8 |
| 20260507060513 | 42 | 0 | 0.0 | 2.0 | 0.00 | 0.41 | 0.00 | 96 | 1010.7 |
| 20260507060030 | 42 | 0 | 0.0 | 2.0 | 0.00 | 0.41 | 0.00 | 96 | 1010.5 |
| 20260507055513 | 42 | 0 | 0.0 | 2.0 | 0.00 | 0.41 | 0.00 | 96 | 1010.4 |
| 20260507055014 | 42 | 0 | 0.0 | 0.0 | 0.00 | 0.41 | 0.00 | 96 | 1010.6 |
| 20260507054529 | 42 | 0 | 0.0 | 0.0 | 0.00 | 0.41 | 0.00 | 96 | 1010.7 |
| 20260507054015 | 42 | 0 | 0.0 | 0.0 | 0.00 | 0.41 | 0.00 | 96 | 1010.7 |
| 20260507053511 | 42 | 0 | 0.0 | 1.0 | 0.00 | 0.41 | 0.00 | 96 | 1010.7 |
| 20260507053030 | 42 | 0 | 0.0 | 1.0 | 0.00 | 0.41 | 0.00 | 96 | 1010.8 |
| 20260507052509 | 42 | 0 | 0.0 | 0.0 | 0.00 | 0.41 | 0.00 | 96 | 1010.8 |
| 20260507052010 | 42 | 0 | 0.0 | 0.0 | 0.00 | 0.41 | 0.00 | 96 | 1010.7 |
| 20260507051526 | 42 | 0 | 0.0 | 0.0 | 0.00 | 0.41 | 0.00 | 95 | 1010.7 |
| 20260507051010 | 42 | 0 | 0.0 | 0.0 | 0.00 | 0.41 | 0.00 | 95 | 1010.7 |
| 20260507050510 | 42 | 0 | 0.0 | 0.0 | 0.00 | 0.41 | 0.00 | 95 | 1010.8 |
| 20260507050040 | 42 | 0 | 0.0 | 1.0 | 0.00 | 0.41 | 0.00 | 96 | 1010.7 |
| 20260507045513 | 42 | 0 | 0.0 | 1.0 | 0.00 | 0.41 | 0.00 | 95 | 1010.8 |
| 20260507045011 | 42 | 0 | 0.0 | 1.0 | 0.00 | 0.41 | 0.00 | 95 | 1010.9 |
| 20260507044530 | 42 | 0 | 0.0 | 1.0 | 0.00 | 0.41 | 0.00 | 95 | 1010.9 |
| 20260507044010 | 42 | 0 | 0.0 | 1.0 | 0.00 | 0.41 | 0.00 | 95 | 1011.1 |
| 20260507043510 | 42 | 0 | 0.0 | 0.0 | 0.00 | 0.41 | 0.00 | 95 | 1011.1 |
| 20260507043030 | 41 | 0 | 0.0 | 0.0 | 0.00 | 0.41 | 0.00 | 95 | 1011.0 |
| 20260507042513 | 42 | 0 | 0.0 | 0.0 | 0.00 | 0.41 | 0.00 | 95 | 1011.1 |
| 20260507042011 | 41 | 0 | 0.0 | 1.0 | 0.00 | 0.41 | 0.00 | 95 | 1011.0 |
| 20260507041528 | 41 | 0 | 0.0 | 2.0 | 0.00 | 0.41 | 0.00 | 94 | 1011.1 |
| 20260507041010 | 41 | 0 | 0.0 | 2.0 | 0.00 | 0.41 | 0.00 | 94 | 1010.9 |
| 20260507040510 | 41 | 335 | 0.0 | 1.0 | 0.00 | 0.41 | 0.00 | 94 | 1011.1 |
| 20260507040026 | 41 | 0 | 0.0 | 0.0 | 0.00 | 0.41 | 0.00 | 94 | 1010.9 |
| 20260507035510 | 41 | 0 | 0.0 | 0.0 | 0.00 | 0.41 | 0.41 | 94 | 1010.8 |
| 20260507035014 | 41 | 0 | 0.0 | 0.0 | 0.00 | 0.41 | 0.41 | 94 | 1010.9 |
| 20260507034600 | 41 | 0 | 0.0 | 0.0 | 0.00 | 0.41 | 0.41 | 94 | 1010.9 |
| 20260507034012 | 41 | 0 | 0.0 | 3.0 | 0.00 | 0.41 | 0.41 | 93 | 1011.0 |
| 20260507033513 | 41 | 0 | 0.0 | 3.0 | 0.00 | 0.41 | 0.41 | 93 | 1010.9 |
| 20260507033030 | 42 | 0 | 1.0 | 3.0 | 0.00 | 0.41 | 0.41 | 93 | 1010.6 |
| 20260507032513 | 42 | 321 | 1.0 | 2.0 | 0.00 | 0.41 | 0.41 | 93 | 1010.6 |
| 20260507032015 | 42 | 0 | 0.0 | 0.0 | 0.00 | 0.41 | 0.41 | 93 | 1010.6 |
| 20260507031529 | 42 | 0 | 0.0 | 2.0 | 0.00 | 0.41 | 0.41 | 93 | 1010.8 |
| 20260507031011 | 42 | 0 | 0.0 | 2.0 | 0.00 | 0.41 | 0.41 | 92 | 1010.9 |
| 20260507030512 | 43 | 297 | 0.0 | 2.0 | 0.00 | 0.41 | 0.41 | 92 | 1011.0 |
| 20260507030031 | 43 | 0 | 0.0 | 1.0 | 0.00 | 0.41 | 0.41 | 92 | 1010.9 |
| 20260507025510 | 44 | 0 | 0.0 | 2.0 | 0.00 | 0.41 | 0.41 | 92 | 1011.0 |
| 20260507025013 | 44 | 0 | 0.0 | 1.0 | 0.00 | 0.41 | 0.41 | 92 | 1011.1 |
| 20260507024533 | 44 | 0 | 0.0 | 1.0 | 0.00 | 0.41 | 0.41 | 92 | 1011.1 |
| 20260507024014 | 45 | 0 | 0.0 | 0.0 | 0.00 | 0.41 | 0.41 | 92 | 1010.9 |
| 20260507023515 | 45 | 0 | 0.0 | 0.0 | 0.00 | 0.41 | 0.41 | 92 | 1010.9 |
| 20260507023029 | 45 | 0 | 0.0 | 1.0 | 0.00 | 0.41 | 0.41 | 92 | 1010.9 |
| 20260507022512 | 45 | 0 | 0.0 | 3.0 | 0.00 | 0.41 | 0.41 | 92 | 1011.2 |
| 20260507022013 | 45 | 0 | 1.0 | 3.0 | 0.00 | 0.41 | 0.41 | 92 | 1011.6 |
| 20260507021533 | 45 | 0 | 0.0 | 3.0 | 0.00 | 0.41 | 0.41 | 92 | 1011.5 |
| 20260507021013 | 45 | 0 | 0.0 | 3.0 | 0.00 | 0.41 | 0.41 | 92 | 1011.0 |
| 20260507020509 | 45 | 300 | 0.0 | 2.0 | 0.00 | 0.41 | 0.41 | 92 | 1011.3 |
| 20260507020028 | 45 | 0 | 0.0 | 0.0 | 0.00 | 0.41 | 0.41 | 92 | 1011.3 |
| 20260507015512 | 46 | 0 | 0.0 | 0.0 | 0.00 | 0.41 | 0.41 | 92 | 1011.5 |
| 20260507015015 | 46 | 0 | 0.0 | 0.0 | 0.00 | 0.41 | 0.41 | 92 | 1011.6 |
| 20260507014531 | 46 | 0 | 0.0 | 0.0 | 0.00 | 0.41 | 0.41 | 92 | 1011.6 |
| 20260507014012 | 46 | 0 | 0.0 | 0.0 | 0.00 | 0.41 | 0.41 | 91 | 1011.5 |
| 20260507013510 | 46 | 0 | 0.0 | 1.0 | 0.00 | 0.41 | 0.41 | 91 | 1011.4 |
| 20260507013029 | 46 | 0 | 0.0 | 4.0 | 0.00 | 0.41 | 0.41 | 91 | 1011.4 |
| 20260507012012 | 46 | 319 | 1.0 | 4.0 | 0.00 | 0.41 | 0.41 | 91 | 1011.4 |
| 20260507011533 | 46 | 327 | 0.0 | 4.0 | 0.00 | 0.41 | 0.41 | 91 | 1011.3 |
| 20260507011011 | 46 | 0 | 0.0 | 4.0 | 0.00 | 0.41 | 0.41 | 91 | 1011.3 |
| 20260507010513 | 46 | 307 | 2.0 | 4.0 | 0.00 | 0.41 | 0.41 | 91 | 1011.5 |
| 20260507010040 | 46 | 290 | 2.0 | 5.0 | 0.00 | 0.41 | 0.41 | 91 | 1011.5 |
| 20260507005510 | 46 | 288 | 2.0 | 5.0 | 0.00 | 0.41 | 0.41 | 91 | 1011.3 |
| 20260507005010 | 46 | 281 | 2.0 | 5.0 | 0.00 | 0.41 | 0.41 | 91 | 1011.0 |
| 20260507004529 | 46 | 314 | 1.0 | 3.0 | 0.00 | 0.41 | 0.41 | 91 | 1010.9 |
| 20260507004013 | 46 | 282 | 0.0 | 3.0 | 0.00 | 0.41 | 0.41 | 91 | 1010.9 |
| 20260507003511 | 46 | 288 | 0.0 | 6.0 | 0.00 | 0.41 | 0.41 | 91 | 1010.8 |
| 20260507003030 | 46 | 321 | 2.0 | 6.0 | 0.00 | 0.41 | 0.41 | 91 | 1010.7 |
| 20260507002512 | 46 | 323 | 2.0 | 5.0 | 0.00 | 0.41 | 0.41 | 91 | 1010.6 |
| 20260507002013 | 46 | 303 | 1.0 | 5.0 | 0.00 | 0.41 | 0.41 | 91 | 1010.4 |
| 20260507001549 | 46 | 317 | 2.0 | 5.0 | 0.00 | 0.41 | 0.41 | 91 | 1010.3 |
| 20260507001011 | 46 | 5 | 1.0 | 9.0 | 0.00 | 0.41 | 0.41 | 91 | 1010.4 |
| 20260507000512 | 46 | 344 | 3.0 | 9.0 | 0.00 | 0.41 | 0.41 | 91 | 1010.5 |
| 20260507000035 | 46 | 312 | 1.0 | 6.0 | 0.00 | 0.41 | 0.41 | 91 | 1010.6 |
| 20260506235511 | 46 | 31 | 2.0 | 8.0 | 0.00 | 0.41 | 0.41 | 91 | 1010.4 |
| 20260506235010 | 46 | 288 | 3.0 | 8.0 | 0.00 | 0.41 | 0.41 | 92 | 1010.4 |
| 20260506234531 | 46 | 342 | 4.0 | 9.0 | 0.00 | 0.41 | 0.41 | 92 | 1010.1 |
| 20260506234013 | 46 | 355 | 1.0 | 9.0 | 0.00 | 0.41 | 0.41 | 92 | 1010.0 |
| 20260506233511 | 46 | 0 | 2.0 | 8.0 | 0.00 | 0.41 | 0.41 | 92 | 1010.0 |
| 20260506233030 | 46 | 305 | 4.0 | 8.0 | 0.00 | 0.41 | 0.41 | 92 | 1010.1 |
| 20260506232512 | 46 | 349 | 3.0 | 8.0 | 0.00 | 0.41 | 0.41 | 92 | 1009.9 |
| 20260506232010 | 46 | 348 | 3.0 | 10.0 | 0.00 | 0.41 | 0.41 | 92 | 1009.9 |
| 20260506231528 | 47 | 21 | 3.0 | 10.0 | 0.00 | 0.41 | 0.41 | 92 | 1010.0 |
| 20260506231013 | 47 | 320 | 2.0 | 10.0 | 0.00 | 0.41 | 0.41 | 92 | 1010.0 |